Flag for Romania Weather past 2 weeks in Bucharest, Romania

Now
48 °F

Sunny.


Feels Like: 46 °F
Forecast: 36 / 46 °F
Wind: 6 mph from North

Location: Bucharest / Imh

Current Time: Mar 4, 2015 at 11:29:07 AM

Latest Report: Mar 4, 2015 at 11:00 AM


Visibility: 10 mi

Pressure: 30.33 "Hg

Humidity: 43%

Dew point: 27 °F

Location of BucharestLocation

Historic Weather in Bucharest — Graph

°F

Bucharest temperature yesterday

Maximum temperature yesterday: 55 °F (at 1:30 PM)
Minimum temperature yesterday: 36 °F (at 10:00 PM)
Average temperature yesterday: 46 °F

Past Weeks' High & Low Weather Summary

 TemperatureHumidityPressure
High57 °F (Feb 28, 1:30 PM)100% (Feb 21, 11:30 PM)30.69 "Hg (Feb 21, 11:30 PM)
Low19 °F (Feb 18, 6:00 AM)32% (Feb 18, 4:00 PM)29.71 "Hg (Feb 24, 2:00 PM)
Average42 °F82%30.07 "Hg
* Reported Feb 17 10:00 AM — Mar 4 10:30 AM, Bucharest, Weather by CustomWeather, © 2015

Note: Actual official high and low records may vary slightly from our data, if they occured in-between our weather recording intervals... More about our weather records

Advertising

Bucharest weather history for previous 24 hours

 ConditionsComfort  
Time TempWeatherWind HumidityBarometerVisibility
10:30 AM
Wed, Mar 4
46 °FSunny.2 mph50%30.33 "Hg10 mi
10:00 AM46 °FPassing clouds.5 mph50%30.33 "HgN/A
9:30 AM45 °FPassing clouds.5 mph53%30.33 "HgN/A
9:00 AM43 °FPassing clouds.3 mph57%30.33 "HgN/A
8:30 AM39 °FSunny.2 mph65%30.33 "Hg10 mi
8:00 AM37 °FPassing clouds.3 mph70%30.33 "HgN/A
7:30 AM36 °FSunny.2 mph75%30.33 "Hg10 mi
7:00 AM34 °FSunny.5 mph81%30.30 "Hg10 mi
6:30 AM34 °FClear.3 mph87%30.30 "Hg10 mi
5:30 AM34 °FClear.3 mph87%30.30 "Hg10 mi
5:00 AM32 °FClear.5 mph93%30.30 "Hg10 mi
4:30 AM34 °FClear.1 mph87%30.27 "Hg10 mi
4:00 AM34 °FClear.2 mph87%30.27 "Hg10 mi
3:30 AM34 °FClear.3 mph87%30.24 "Hg10 mi
3:00 AM36 °FClear.No wind81%30.24 "Hg10 mi
2:30 AM36 °FClear.2 mph75%30.24 "Hg10 mi
2:00 AM37 °FClear.2 mph70%30.24 "Hg10 mi
1:30 AM39 °FClear.7 mph65%30.24 "Hg10 mi
1:00 AM39 °FClear.9 mph65%30.21 "Hg10 mi
12:30 AM37 °FClear.5 mph70%30.21 "Hg10 mi
12:00 AM39 °FClear.6 mph65%30.21 "Hg10 mi
11:30 PM
Tue, Mar 3
41 °FClear.6 mph61%30.18 "Hg10 mi
11:00 PM37 °FClear.7 mph81%30.18 "Hg10 mi
10:30 PM37 °FClear.1 mph93%30.18 "Hg10 mi
10:00 PM36 °FClear.1 mph100%30.15 "Hg10 mi
9:30 PM39 °FClear.2 mph87%30.15 "Hg10 mi
9:00 PM39 °FClear.3 mph93%30.12 "Hg10 mi
8:30 PM39 °FClear.3 mph93%30.12 "Hg10 mi
8:00 PM39 °FClear.1 mph87%30.09 "Hg10 mi
7:30 PM39 °FPassing clouds.7 mph87%30.09 "HgN/A
7:00 PM41 °FThundershowers. Passing clouds.17 mph87%30.07 "HgN/A
6:30 PM46 °FThunderstorms. Passing clouds.5 mph76%30.04 "HgN/A
6:00 PM48 °FThundershowers. Scattered clouds.7 mph87%30.01 "HgN/A
5:30 PM48 °FScattered showers. Scattered clouds.7 mph87%30.01 "HgN/A
5:00 PM48 °FPassing clouds.9 mph94%29.98 "HgN/A
4:30 PM50 °FThunderstorms. Partly sunny.6 mph82%29.98 "HgN/A
4:00 PM50 °FScattered clouds.6 mph82%29.98 "HgN/A
3:30 PM50 °FSprinkles. Partly sunny.7 mph82%29.98 "HgN/A
3:00 PM50 °FSprinkles. Scattered clouds.8 mph82%29.98 "HgN/A
2:30 PM52 °FThundershowers. Scattered clouds.13 mph82%29.95 "HgN/A
2:00 PM55 °FPassing clouds.3 mph67%29.95 "HgN/A
1:30 PM55 °FPassing clouds.2 mph77%29.95 "HgN/A
1:00 PM52 °FPassing clouds.5 mph88%29.95 "HgN/A
12:30 PM52 °FPartly sunny.3 mph94%29.95 "HgN/A
12:00 PM52 °FPassing clouds.5 mph94%29.95 "Hg5 mi
11:30 AM50 °FPassing clouds.7 mph94%29.92 "Hg4 mi
11:00 AM50 °FFog.6 mph94%29.92 "Hg3 mi
Weather by CustomWeather, © 2015

See weather overviewHow to use our weather pages